Location: Be?chatów
(51.3665°N, 19.3745°E)
Time: 18:09:53
(UTC+00:00)

PSLV R/B - Pass Details

Date: 19 May 2025
Orbit: 586 x 683 km, 97.9° (Epoch: 20 June)

Event Time Altitude Azimuth Distance (km) Brightness Sun altitude
Rises 22:39:19 0° 12° (NNE) 2,853 8.5 -18.7°
Reaches altitude 10° 22:41:30 10° 11° (N) 1,938 7.3 -18.7°
Maximum altitude 22:45:41 75° 288° (WNW) 615 3.5 -18.6°
Enters shadow 22:47:06 40° 210° (SSW) 872 3.9 -18.6°
